Volver al catálogo

COSMOS 397 DEB

ActivoLEO
NORAD 5187·DEBRIS·🇷🇺 Russia

Lanzado Feb 25, 1971 desde Baikonur Cosmodrome

Loading…

Próximos Pases (próximas 24 horas)

TLE

ActualizadoSource: Space-Track

Época: Sep 14, 2026, 05:26 UTC

1 05187U 71015AM  26257.22673507  .00000991  00000-0  29599-3 0  9995
2 05187  65.6479 350.0570 0575518  46.9100 317.8662 13.79970556684307

Sigue COSMOS 397 DEB en tiempo real con AllMySat

Download on the App Store